WetterOnline ( https://www.wetteronline.de )

Wetter aktuell Arkona

Aktuelles Wetter: Kap Arkona/Rügen (42m)

6-stündlich | Neueste Meldungen
Ortszeit Temperatur Wetter
Di, 21.05. 2:00 10.4° C wolkig
Mo, 20.05. 20:00 10.4° C Nebel
Mo, 20.05. 14:00 11.3° C bedeckt
Mo, 20.05. 8:00 9.9° C Nebel
Mo, 20.05. 2:00 9.9° C bedeckt
So, 19.05. 20:00 9.7° C Nebel
So, 19.05. 14:00 10.8° C Nebel
So, 19.05. 8:00 10.1° C Nebel
Ortszeit Temperatur Wetter
Di, 21.05. 3:00 9.8° C Nebel
Di, 21.05. 2:50 9.8° C Nebel
Di, 21.05. 2:40 9.9° C wolkig
Di, 21.05. 2:30 10.0° C Dunst
Di, 21.05. 2:20 10.0° C Nebel
Di, 21.05. 2:10 10.2° C wolkig
Di, 21.05. 2:00 10.4° C wolkig
Di, 21.05. 1:30 10.9° C wolkig
Di, 21.05. 1:00 11.5° C bedeckt
Di, 21.05. 0:30 11.2° C bewölkt
Di, 21.05. 0:00 10.7° C wolkig
Ortszeit Relative Feuchte Sichtweite
Di, 21.05. 2:00 99% 1.6 km
Mo, 20.05. 20:00 99% 0.7 km
Mo, 20.05. 14:00 93% 1.8 km
Mo, 20.05. 8:00 100% 100 m
Mo, 20.05. 2:00 100% 100 m
So, 19.05. 20:00 99% 100 m
So, 19.05. 14:00 97% 0.3 km
So, 19.05. 8:00 100% 100 m
Ortszeit Relative Feuchte Sichtweite
Di, 21.05. 3:00 99% 0.5 km
Di, 21.05. 2:50 99% -
Di, 21.05. 2:40 99% -
Di, 21.05. 2:30 99% -
Di, 21.05. 2:20 99% -
Di, 21.05. 2:10 99% -
Di, 21.05. 2:00 99% 1.6 km
Di, 21.05. 1:30 99% 2.1 km
Di, 21.05. 1:00 97% 3.2 km
Di, 21.05. 0:30 99% 2.6 km
Di, 21.05. 0:00 98% 2.5 km
Ortszeit Niederschlagsmenge Niederschlagsart
Di, 21.05. 2:00 6 l/m2 in 6 Std. Regen
Mo, 20.05. 20:00 0.0 l/m2 in 12 Std. -
Mo, 20.05. 14:00 0.0 l/m2 in 6 Std. -
Mo, 20.05. 8:00 0.0 l/m2 in 12 Std. -
Mo, 20.05. 2:00 0.0 l/m2 in 6 Std. -
So, 19.05. 20:00 0.0 l/m2 in 12 Std. -
So, 19.05. 14:00 0.0 l/m2 in 6 Std. -
So, 19.05. 8:00 0.0 l/m2 in 12 Std. -
Ortszeit Niederschlagsmenge Niederschlagsart
Di, 21.05. 3:00 0.0 l/m2 in 1 Std. -
Di, 21.05. 2:50 keine Meldung -
Di, 21.05. 2:40 keine Meldung -
Di, 21.05. 2:30 0.0 l/m2 in 1 Std. -
Di, 21.05. 2:20 keine Meldung -
Di, 21.05. 2:10 keine Meldung -
Di, 21.05. 2:00 0.0 l/m2 in 1 Std. Regen
Di, 21.05. 1:30 0.0 l/m2 in 1 Std. -
Di, 21.05. 1:00 0.1 l/m2 in 1 Std. Regen
Di, 21.05. 0:30 0.1 l/m2 in 1 Std. Schneeregen
Di, 21.05. 0:00 0.1 l/m2 in 1 Std. -
Ortszeit Stärke Spitze Richtung
km/h Bft. km/h Grad Sektor
Di, 21.05. 2:00 22 4 36 30° NO
Mo, 20.05. 20:00 28 4 35 30° NO
Mo, 20.05. 14:00 18 3 22 40° NO
Mo, 20.05. 8:00 19 3 28 40° NO
Mo, 20.05. 2:00 22 4 29 40° NO
So, 19.05. 20:00 19 3 33 30° NO
So, 19.05. 14:00 22 4 29 50° NO
So, 19.05. 8:00 11 2 36 90° O
Ortszeit Stärke Spitze Richtung
km/h Bft. km/h Grad Sektor
Di, 21.05. 3:00 22 4 29 40° NO
Di, 21.05. 2:50 22 4 - 40° NO
Di, 21.05. 2:40 20 4 - 40° NO
Di, 21.05. 2:30 20 4 28 30° NO
Di, 21.05. 2:20 20 4 - 30° NO
Di, 21.05. 2:10 18 3 - 30° NO
Di, 21.05. 2:00 22 4 29 30° NO
Di, 21.05. 1:30 20 4 30 40° NO
Di, 21.05. 1:00 22 4 36 30° NO
Di, 21.05. 0:30 25 4 36 30° NO
Di, 21.05. 0:00 24 4 28 40° NO
Ortszeit Untergrenze Bedeckung Gattung
total tief tief mittel hoch
Di, 21.05. 2:00 7800 m 8/8 0/8 - - -
Mo, 20.05. 20:00 <30 m 8/8 0/8 - - -
Mo, 20.05. 14:00 <30 m 8/8 0/8 - - -
Mo, 20.05. 8:00 <30 m 8/8 0/8 - - -
Mo, 20.05. 2:00 <30 m 8/8 0/8 - - -
So, 19.05. 20:00 <30 m 8/8 0/8 - - -
So, 19.05. 14:00 <30 m 8/8 0/8 - - -
So, 19.05. 8:00 <30 m 8/8 0/8 - - -
Ortszeit Bedeckungsgrad in Achtel und Wolkenuntergrenze
Di, 21.05. 3:00 4(150m) 7(7800m) 8(9000m)
Di, 21.05. 2:50 4(150m) 7(7800m) 8(9000m)
Di, 21.05. 2:40 2(120m) 8(8100m) 8(9000m)
Di, 21.05. 2:30 8(7800m) 8(9000m) 8(9000m)
Di, 21.05. 2:20 8(7800m) 8(9000m)
Di, 21.05. 2:10 8(7800m)
Di, 21.05. 2:00 8(7800m) 8(9000m)
Di, 21.05. 1:30 2(30m) 7(8100m) 8(9000m)
Di, 21.05. 1:00 7(570m) 8(720m) 8(9000m)
Di, 21.05. 0:30 1(210m) 7(1260m) 7(8700m)
Di, 21.05. 0:00 4(870m) 7(9000m) 7(9000m)
Ortszeit Luftdruck NN (hPa) Tendenz (hPa in 3 Std.)
Di, 21.05. 2:00 1004 - 1,6
Mo, 20.05. 20:00 1005 - 0,6
Mo, 20.05. 14:00 1007 0,0
Mo, 20.05. 8:00 1007 + 0,1
Mo, 20.05. 2:00 1007 - 0,8
So, 19.05. 20:00 1008 - 1,1
So, 19.05. 14:00 1010 - 0,2
So, 19.05. 8:00 1010 0,0
Ortszeit Luftdruck NN (hPa) Tendenz (hPa in 3 Std.)
Di, 21.05. 3:00 1005 0,0
Di, 21.05. 2:50 1005 keine Meldung
Di, 21.05. 2:40 1005 keine Meldung
Di, 21.05. 2:30 1004 - 0,5
Di, 21.05. 2:20 1004 keine Meldung
Di, 21.05. 2:10 1004 keine Meldung
Di, 21.05. 2:00 1004 - 1,6
Di, 21.05. 1:30 1004 - 1,1
Di, 21.05. 1:00 1005 - 0,2
Di, 21.05. 0:30 1005 - 0,2
Di, 21.05. 0:00 1005 - 0,6
Ortszeit Schneehöhe (cm)
Di, 21.05. 2:00 -
Mo, 20.05. 20:00 -
Mo, 20.05. 14:00 -
Mo, 20.05. 8:00 -
Mo, 20.05. 2:00 -
So, 19.05. 20:00 -
So, 19.05. 14:00 -
So, 19.05. 8:00 -
Ortszeit Schneehöhe (cm)
Di, 21.05. 3:00 -
Di, 21.05. 2:50 -
Di, 21.05. 2:40 -
Di, 21.05. 2:30 -
Di, 21.05. 2:20 -
Di, 21.05. 2:10 -
Di, 21.05. 2:00 -
Di, 21.05. 1:30 -
Di, 21.05. 1:00 -
Di, 21.05. 0:30 -
Di, 21.05. 0:00 -
Link zu dieser Seite / Seite empfehlen

Das Wetter in ...